PRAETORIAN SDA_60J

基本信息
目录编号:
65573
目录名称:
PRAETORIAN SDA_610
国际标识:
2025-203J
轨道中心:
EARTH
卫星名称:
PRAETORIAN SDA_60J
卫星全名:
PRAETORIAN SDA_60J
卫星状态:
在轨 (已飞行41 天)
发射日期:
2025-09-10 UTC
国别 :
美国 (US)
星等 :
--
轨道信息
数据来源 国际轨道数据
星历时间: 2025-10-21T05:13:07+0800
11小时前
查看轨道信息
半长轴: 7325.574km
偏心率: 0.0007658
轨道倾角: 81.300°
近地点辐角 118.272°
升交点赤经 232.447°
平近点角 241.921°
近地点: 941.829km
远地点: 953.049km
周期: 103.997分钟
每日圈数: 13.846511
详细信息
使用方式:
暂无
2D轨道图
3D轨道图
轨道高度分析图
轨道倾角分析图
轨道综合分析图
查看轨道综合分析图